Miscellaneous Local Product
Issued by NWS North Platte, NE

Home | Current Version | Previous Version | Graphics & Text | Print | Product List | Glossary On
Versions: 1 2 3 4 5 6 7 8 9 10 11 12 13 14 15 16 17 18 19 20 21 22 23 24 25 26 27 28 29 30 31 32 33 34 35 36 37 38 39 40 41 42 43 44 45 46 47 48 49 50
000
AXUS43 KLBF 250510
MISLBF


WESTERN AND NORTH CENTRAL NEBRASKA HOURLY WEATHER ROUNDUP
NATIONAL WEATHER SERVICE NORTH PLATTE NE
1200 AM CDT TUE APR 25 2017

NOTE: "FAIR" INDICATES FEW OR NO CLOUDS BELOW 12,000 FEET WITH NO
SIGNIFICANT WEATHER AND/OR OBSTRUCTIONS TO VISIBILITY.

NOTE: STATIONS NOT REPORTING VARIABLES SUCH AS SKY/WEATHER OR
PRESSURE ARE PROVIDED BY RAWS AND APRS NETWORKS AND ARE NOT UNDER
NATIONAL WEATHER SERVICE QUALITY CONTROL.

...OBSERVATIONS IN AND NEAR THE EASTERN PANHANDLE OF NEBRASKA...

CITY           SKY/WX    TMP DP  RH WIND       PRES   REMARKS
PINE RIDGE     CLOUDY    49  41  74 E13       29.59F
CHADRON        CLOUDY    49  44  83 SE13      29.57F
ALLIANCE       LGT RAIN  49  45  86 SE12      29.58F
SIDNEY         CLOUDY    47  44  90 NE10      29.56F
CRESCENT LAKE    N/A     47  44  91 SE9G16      N/A
$$

...OBSERVATIONS IN NORTHERN NEBRASKA AND FAR SOUTHERN SOUTH DAKOTA...

CITY           SKY/WX    TMP DP  RH WIND       PRES   REMARKS
WINNER         FAIR      39  36  89 N7        29.64S WCI  34
VALENTINE      CLOUDY    45  37  73 NE9       29.62S
THEDFORD       CLOUDY    46  41  84 NE6       29.59F
AINSWORTH      CLOUDY    40  38  93 NE5       29.62S
O`NEILL        CLEAR     42  37  81 NW8       29.60F
ORD            MOCLDY    49  39  68 N8        29.58S
BROKEN BOW     CLOUDY    51  40  65 N7        29.59R
VALENTINE NWR    N/A     44  39  83 E5          N/A
HALSEY           N/A     46  39  78 CALM        N/A
BUTTE            N/A     42  37  83 N5G12       N/A
CHAMBERS         N/A     42  36  78 CALM        N/A
EWING            N/A     44  40  85 NW3         N/A
$$

...OBSERVATIONS IN SOUTHWEST NEBRASKA AND FAR NORTHEAST COLORADO...

CITY           SKY/WX    TMP DP  RH WIND       PRES   REMARKS
HOLYOKE        HVY RAIN  54  46  76 NE8       29.59R
IMPERIAL       CLOUDY    53  46  77 NE9       29.55F
OGALLALA       LGT RAIN  55  41  58 E9        29.61R
NORTH PLATTE   CLOUDY    53  41  63 NE12      29.55F
MCCOOK         CLOUDY    56  43  61 NE10      29.51F
LEXINGTON      MOCLDY    55  40  57 NE7       29.57R
STAPLETON        N/A     48  40  75 CALM        N/A
GOTHENBURG       N/A     56  39  53 NE5         N/A
CALLAWAY         N/A     50  42  72 NE7         N/A
$$

...OBSERVATIONS IN CENTRAL LINCOLN COUNTY AREA...

CITY           SKY/WX    TMP DP  RH WIND       PRES   REMARKS
N.P. AIRPORT   CLOUDY    53  41  63 NE12      29.55F
N.P. DOWNTOWN    N/A     51  44  78 E7          N/A
N.P. HILLCREST   N/A     50  43  77 NE16G23     N/A
$$

...SOME OBSERVATIONS FROM AROUND THE REGION...

CITY           SKY/WX    TMP DP  RH WIND       PRES   REMARKS
DENVER         CLOUDY    47  38  71 E10       29.54F
LIMON          CLOUDY    51  38  60 N13       29.56R
ASPEN          LGT RAIN  41  35  79 NW5       29.68R
LARAMIE        CLOUDY    32  32 100 SE14      29.62F WCI  22
CASPER         CLOUDY    42  37  82 S10       29.49F
CHEYENNE       CLOUDY    34  32  92 NW15G25   29.64R FOG     WCI  24
SCOTTSBLUFF    CLOUDY    50  45  83 SE7       29.56F
GRAND ISLAND   PTCLDY    53  43  68 NE16      29.56F
OMAHA          MOCLDY    63  44  50 S8        29.52S
SIOUX FALLS    CLOUDY    46  40  79 NW15      29.57R
PIERRE         CLOUDY    38  33  82 N10       29.66R WCI  31
RAPID CITY     CLOUDY    41  35  79 NE12      29.63R
BISMARCK       CLOUDY    34  30  85 N10       29.74S WCI  26
KANSAS CITY    PTCLDY    62  44  51 S13       29.58F
HILL CITY      CLOUDY    59  46  62 NE9       29.51S
WICHITA        CLOUDY    63  50  62 S12       29.53F
DODGE CITY     MOCLDY    61  50  67 SE17      29.42F
OKLAHOMA CITY  CLOUDY    63  49  60 S18G26    29.52F
DALLAS         MOCLDY    69  51  52 S16       29.62F
AMARILLO       PTCLDY    62  32  32 SW12      29.49F
$$




USA.gov is the U.S. government's official web portal to all federal, state and local government web resources and services.